| time (UTC) | temp C | wind direction | speed KPH | gust KPH | rain 1hr cm | rain 24hr cm | rain mn cm | humidity % | barometer mb |
| 20260905234803 | 15 | 260 | 9.7 | 25.7 | 0.00 | 0.00 | 0.00 | 60 | 1019.1 |
| 20260905234303 | 15 | 254 | 6.4 | 12.9 | 0.00 | 0.00 | 0.00 | 61 | 1019.1 |
| 20260905233802 | 15 | 243 | 4.8 | 17.7 | 0.00 | 0.00 | 0.00 | 61 | 1019.1 |
| 20260905233302 | 15 | 248 | 6.4 | 9.7 | 0.00 | 0.00 | 0.00 | 62 | 1019.1 |
| 20260905232802 | 15 | 272 | 0.0 | 9.7 | 0.00 | 0.00 | 0.00 | 61 | 1019.0 |
| 20260905232305 | 15 | 295 | 4.8 | 14.5 | 0.00 | 0.00 | 0.00 | 61 | 1019.0 |
| 20260905231801 | 15 | 222 | 6.4 | 14.5 | 0.00 | 0.00 | 0.00 | 60 | 1019.0 |
| 20260905231301 | 15 | 267 | 9.7 | 16.1 | 0.00 | 0.00 | 0.00 | 60 | 1019.0 |
| 20260905230801 | 16 | 277 | 3.2 | 12.9 | 0.00 | 0.00 | 0.00 | 58 | 1018.9 |
| 20260905230301 | 16 | 320 | 6.4 | 16.1 | 0.00 | 0.00 | 0.00 | 57 | 1019.0 |
| 20260905225800 | 16 | 327 | 1.6 | 16.1 | 0.00 | 0.00 | 0.00 | 56 | 1018.9 |
| 20260905225300 | 16 | 292 | 16.1 | 19.3 | 0.00 | 0.00 | 0.00 | 56 | 1018.9 |
| 20260905224800 | 16 | 277 | 1.6 | 25.7 | 0.00 | 0.00 | 0.00 | 55 | 1018.8 |
| 20260905224259 | 16 | 302 | 8.0 | 25.7 | 0.00 | 0.00 | 0.00 | 55 | 1018.7 |
| 20260905223759 | 16 | 334 | 3.2 | 22.5 | 0.00 | 0.00 | 0.00 | 55 | 1018.7 |
| 20260905223259 | 16 | 296 | 12.9 | 22.5 | 0.00 | 0.00 | 0.00 | 54 | 1018.7 |
| 20260905222759 | 16 | 270 | 11.3 | 27.4 | 0.00 | 0.00 | 0.00 | 53 | 1018.6 |
| 20260905222258 | 17 | 289 | 6.4 | 29.0 | 0.00 | 0.00 | 0.00 | 52 | 1018.6 |
| 20260905221758 | 16 | 225 | 16.1 | 17.7 | 0.00 | 0.00 | 0.00 | 53 | 1018.4 |
| 20260905221258 | 16 | 250 | 14.5 | 14.5 | 0.00 | 0.00 | 0.00 | 55 | 1018.2 |
| 20260905220757 | 16 | 251 | 8.0 | 12.9 | 0.00 | 0.00 | 0.00 | 55 | 1018.2 |
| 20260905220257 | 16 | 268 | 6.4 | 12.9 | 0.00 | 0.00 | 0.00 | 55 | 1018.1 |
| 20260905215757 | 16 | 234 | 4.8 | 11.3 | 0.00 | 0.00 | 0.00 | 56 | 1018.1 |
| 20260905215257 | 16 | 233 | 3.2 | 9.7 | 0.00 | 0.00 | 0.00 | 56 | 1018.1 |
| 20260905214756 | 16 | 232 | 4.8 | 9.7 | 0.00 | 0.00 | 0.00 | 57 | 1018.0 |
| 20260905214256 | 16 | 244 | 3.2 | 8.0 | 0.00 | 0.00 | 0.00 | 58 | 1018.0 |
| 20260905213756 | 16 | 212 | 0.0 | 8.0 | 0.00 | 0.00 | 0.00 | 61 | 1018.0 |
| 20260905213255 | 16 | 251 | 3.2 | 6.4 | 0.00 | 0.00 | 0.00 | 62 | 1018.0 |
| 20260905212755 | 16 | 229 | 1.6 | 6.4 | 0.00 | 0.00 | 0.00 | 63 | 1018.0 |
| 20260905212255 | 16 | 194 | 0.0 | 0.0 | 0.00 | 0.00 | 0.00 | 63 | 1018.0 |
| 20260905211755 | 16 | 194 | 0.0 | 0.0 | 0.00 | 0.00 | 0.00 | 61 | 1018.0 |
| 20260905211254 | 16 | 194 | 0.0 | 4.8 | 0.00 | 0.00 | 0.00 | 60 | 1017.9 |
| 20260905210754 | 16 | 209 | 0.0 | 4.8 | 0.00 | 0.00 | 0.00 | 57 | 1017.8 |
| 20260905210254 | 16 | 250 | 3.2 | 6.4 | 0.00 | 0.00 | 0.00 | 56 | 1017.9 |
| 20260905205753 | 17 | 261 | 4.8 | 8.0 | 0.00 | 0.00 | 0.00 | 55 | 1017.8 |
| 20260905205253 | 17 | 215 | 1.6 | 9.7 | 0.00 | 0.00 | 0.00 | 54 | 1017.8 |
| 20260905204753 | 17 | 240 | 4.8 | 12.9 | 0.00 | 0.00 | 0.00 | 54 | 1017.8 |
| 20260905204253 | 17 | 265 | 6.4 | 11.3 | 0.00 | 0.00 | 0.00 | 53 | 1017.8 |
| 20260905203752 | 17 | 202 | 0.0 | 11.3 | 0.00 | 0.00 | 0.00 | 54 | 1017.8 |
| 20260905203252 | 17 | 265 | 4.8 | 9.7 | 0.00 | 0.00 | 0.00 | 53 | 1017.8 |
| 20260905202752 | 17 | 253 | 4.8 | 9.7 | 0.00 | 0.00 | 0.00 | 53 | 1017.8 |
| 20260905202252 | 16 | 212 | 1.6 | 8.0 | 0.00 | 0.00 | 0.00 | 54 | 1017.8 |
| 20260905201751 | 16 | 262 | 1.6 | 8.0 | 0.00 | 0.00 | 0.00 | 54 | 1017.8 |
| 20260905201251 | 17 | 196 | 1.6 | 8.0 | 0.00 | 0.00 | 0.00 | 54 | 1017.8 |
| 20260905200751 | 16 | 220 | 3.2 | 9.7 | 0.00 | 0.00 | 0.00 | 54 | 1017.8 |
| 20260905200250 | 16 | 241 | 4.8 | 4.8 | 0.00 | 0.00 | 0.00 | 54 | 1017.7 |
| 20260905195750 | 16 | 244 | 3.2 | 6.4 | 0.00 | 0.00 | 0.00 | 54 | 1017.7 |
| 20260905195250 | 16 | 232 | 0.0 | 4.8 | 0.00 | 0.00 | 0.00 | 54 | 1017.7 |
| 20260905194750 | 16 | 244 | 1.6 | 6.4 | 0.00 | 0.00 | 0.00 | 55 | 1017.7 |
| 20260905194249 | 16 | 248 | 3.2 | 6.4 | 0.00 | 0.00 | 0.00 | 56 | 1017.7 |
| 20260905193749 | 16 | 233 | 1.6 | 4.8 | 0.00 | 0.00 | 0.00 | 57 | 1017.6 |
| 20260905193249 | 16 | 210 | 0.0 | 6.4 | 0.00 | 0.00 | 0.00 | 57 | 1017.5 |
| 20260905192748 | 16 | 240 | 1.6 | 3.2 | 0.00 | 0.00 | 0.00 | 58 | 1017.5 |
| 20260905192248 | 16 | 232 | 0.0 | 3.2 | 0.00 | 0.00 | 0.00 | 59 | 1017.5 |
| 20260905191748 | 16 | 241 | 3.2 | 3.2 | 0.00 | 0.00 | 0.00 | 60 | 1017.5 |
| 20260905191248 | 16 | 196 | 0.0 | 0.0 | 0.00 | 0.00 | 0.00 | 60 | 1017.4 |
| 20260905190747 | 16 | 196 | 0.0 | 0.0 | 0.00 | 0.00 | 0.00 | 60 | 1017.4 |
| 20260905190247 | 16 | 196 | 0.0 | 1.6 | 0.00 | 0.00 | 0.00 | 60 | 1017.4 |
| 20260905185747 | 16 | 244 | 0.0 | 1.6 | 0.00 | 0.00 | 0.00 | 60 | 1017.4 |
| 20260905185246 | 16 | 225 | 1.6 | 3.2 | 0.00 | 0.00 | 0.00 | 60 | 1017.4 |
| 20260905184746 | 16 | 225 | 0.0 | 3.2 | 0.00 | 0.00 | 0.00 | 60 | 1017.3 |
| 20260905184246 | 16 | 233 | 0.0 | 0.0 | 0.00 | 0.00 | 0.00 | 60 | 1017.2 |
| 20260905183746 | 16 | 233 | 0.0 | 0.0 | 0.00 | 0.00 | 0.00 | 60 | 1017.2 |
| 20260905183245 | 16 | 233 | 0.0 | 0.0 | 0.00 | 0.00 | 0.00 | 59 | 1017.2 |
| 20260905182745 | 16 | 233 | 0.0 | 0.0 | 0.00 | 0.00 | 0.00 | 60 | 1017.2 |
| 20260905182245 | 16 | 233 | 0.0 | 3.2 | 0.00 | 0.00 | 0.00 | 60 | 1017.2 |
| 20260905181744 | 16 | 206 | 0.0 | 1.6 | 0.00 | 0.00 | 0.00 | 60 | 1017.1 |
| 20260905181244 | 16 | 188 | 0.0 | 4.8 | 0.00 | 0.00 | 0.00 | 60 | 1017.2 |
| 20260905180744 | 16 | 192 | 0.0 | 0.0 | 0.00 | 0.00 | 0.00 | 61 | 1017.2 |
| 20260905180244 | 16 | 192 | 0.0 | 0.0 | 0.00 | 0.00 | 0.00 | 62 | 1017.3 |
| 20260905175743 | 16 | 192 | 0.0 | 0.0 | 0.00 | 0.00 | 0.00 | 60 | 1017.1 |
| 20260905175243 | 16 | 192 | 0.0 | 0.0 | 0.00 | 0.00 | 0.00 | 59 | 1017.1 |
| 20260905174743 | 16 | 192 | 0.0 | 0.0 | 0.00 | 0.00 | 0.00 | 59 | 1017.1 |
| 20260905174242 | 16 | 192 | 0.0 | 1.6 | 0.00 | 0.00 | 0.00 | 58 | 1017.0 |
| 20260905173742 | 17 | 257 | 0.0 | 0.0 | 0.00 | 0.00 | 0.00 | 55 | 1016.9 |
| 20260905173242 | 17 | 257 | 0.0 | 0.0 | 0.00 | 0.00 | 0.00 | 54 | 1016.9 |
| 20260905172742 | 17 | 257 | 0.0 | 0.0 | 0.00 | 0.00 | 0.00 | 53 | 1016.9 |
| 20260905172241 | 17 | 257 | 0.0 | 0.0 | 0.00 | 0.00 | 0.00 | 52 | 1016.9 |
| 20260905171741 | 17 | 257 | 0.0 | 0.0 | 0.00 | 0.00 | 0.00 | 51 | 1016.7 |
| 20260905171241 | 18 | 257 | 0.0 | 1.6 | 0.00 | 0.00 | 0.00 | 50 | 1016.9 |
| 20260905170740 | 18 | 253 | 0.0 | 4.8 | 0.00 | 0.00 | 0.00 | 48 | 1016.7 |
| 20260905170240 | 18 | 223 | 0.0 | 0.0 | 0.00 | 0.00 | 0.00 | 48 | 1016.6 |
| 20260905165740 | 18 | 223 | 0.0 | 0.0 | 0.00 | 0.00 | 0.00 | 48 | 1016.6 |
| 20260905165240 | 18 | 223 | 0.0 | 8.0 | 0.00 | 0.00 | 0.00 | 47 | 1016.6 |
| 20260905164739 | 18 | 302 | 1.6 | 3.2 | 0.00 | 0.00 | 0.00 | 45 | 1016.5 |
| 20260905164239 | 18 | 323 | 0.0 | 1.6 | 0.00 | 0.00 | 0.00 | 45 | 1016.5 |
| 20260905163739 | 19 | 315 | 0.0 | 8.0 | 0.00 | 0.00 | 0.00 | 44 | 1016.5 |
| 20260905163239 | 19 | 271 | 8.0 | 9.7 | 0.00 | 0.00 | 0.00 | 44 | 1016.4 |
| 20260905162738 | 19 | 248 | 1.6 | 12.9 | 0.00 | 0.00 | 0.00 | 43 | 1016.4 |
| 20260905162238 | 19 | 279 | 0.0 | 8.0 | 0.00 | 0.00 | 0.00 | 43 | 1016.3 |
| 20260905161738 | 20 | 299 | 1.6 | 9.7 | 0.00 | 0.00 | 0.00 | 43 | 1016.3 |
| 20260905161237 | 20 | 358 | 9.7 | 9.7 | 0.00 | 0.00 | 0.00 | 44 | 1016.2 |
| 20260905160737 | 20 | 274 | 1.6 | 9.7 | 0.00 | 0.00 | 0.00 | 43 | 1016.1 |
| 20260905160237 | 20 | 244 | 6.4 | 11.3 | 0.00 | 0.00 | 0.00 | 43 | 1016.0 |
| 20260905155736 | 20 | 257 | 6.4 | 14.5 | 0.00 | 0.00 | 0.00 | 44 | 1016.0 |
| 20260905155236 | 20 | 255 | 3.2 | 12.9 | 0.00 | 0.00 | 0.00 | 44 | 1015.9 |
| 20260905154736 | 20 | 303 | 3.2 | 14.5 | 0.00 | 0.00 | 0.00 | 45 | 1015.8 |
| 20260905154236 | 20 | 292 | 3.2 | 11.3 | 0.00 | 0.00 | 0.00 | 45 | 1015.8 |
| 20260905153735 | 20 | 268 | 8.0 | 14.5 | 0.00 | 0.00 | 0.00 | 45 | 1015.8 |
| 20260905153235 | 20 | 306 | 8.0 | 9.7 | 0.00 | 0.00 | 0.00 | 45 | 1015.8 |
| 20260905152735 | 20 | 261 | 6.4 | 17.7 | 0.00 | 0.00 | 0.00 | 44 | 1015.7 |
| 20260905152235 | 20 | 237 | 3.2 | 12.9 | 0.00 | 0.00 | 0.00 | 45 | 1015.7 |
| 20260905151734 | 20 | 205 | 3.2 | 11.3 | 0.00 | 0.00 | 0.00 | 45 | 1015.7 |
| 20260905151234 | 20 | 250 | 0.0 | 12.9 | 0.00 | 0.00 | 0.00 | 46 | 1015.7 |
| 20260905150734 | 20 | 275 | 6.4 | 17.7 | 0.00 | 0.00 | 0.00 | 45 | 1015.7 |
| 20260905150233 | 19 | 298 | 6.4 | 19.3 | 0.00 | 0.00 | 0.00 | 46 | 1015.7 |
| 20260905145733 | 20 | 309 | 4.8 | 20.9 | 0.00 | 0.00 | 0.00 | 47 | 1015.8 |
| 20260905145233 | 20 | 274 | 14.5 | 16.1 | 0.00 | 0.00 | 0.00 | 47 | 1015.8 |
| 20260905144733 | 20 | 246 | 1.6 | 17.7 | 0.00 | 0.00 | 0.00 | 47 | 1015.7 |
| 20260905144232 | 20 | 299 | 8.0 | 16.1 | 0.00 | 0.00 | 0.00 | 46 | 1015.8 |
| 20260905143732 | 20 | 286 | 6.4 | 20.9 | 0.00 | 0.00 | 0.00 | 45 | 1015.7 |
| 20260905143232 | 20 | 284 | 6.4 | 25.7 | 0.00 | 0.00 | 0.00 | 46 | 1015.7 |
| 20260905142731 | 20 | 292 | 11.3 | 19.3 | 0.00 | 0.00 | 0.00 | 45 | 1015.7 |
| 20260905142231 | 20 | 292 | 3.2 | 16.1 | 0.00 | 0.00 | 0.00 | 46 | 1015.7 |
| 20260905141731 | 20 | 267 | 1.6 | 20.9 | 0.00 | 0.00 | 0.00 | 45 | 1015.6 |
| 20260905141231 | 21 | 236 | 9.7 | 22.5 | 0.00 | 0.00 | 0.00 | 44 | 1015.6 |
| 20260905140730 | 21 | 285 | 20.9 | 24.1 | 0.00 | 0.00 | 0.00 | 45 | 1015.7 |
| 20260905140230 | 21 | 26 | 8.0 | 17.7 | 0.00 | 0.00 | 0.00 | 45 | 1015.6 |
| 20260905135730 | 21 | 208 | 4.8 | 20.9 | 0.00 | 0.00 | 0.00 | 44 | 1015.6 |
| 20260905135229 | 21 | 272 | 6.4 | 22.5 | 0.00 | 0.00 | 0.00 | 44 | 1015.7 |
| 20260905134729 | 21 | 239 | 9.7 | 17.7 | 0.00 | 0.00 | 0.00 | 43 | 1015.6 |
| 20260905134229 | 21 | 237 | 8.0 | 22.5 | 0.00 | 0.00 | 0.00 | 43 | 1015.6 |
| 20260905133729 | 21 | 262 | 3.2 | 17.7 | 0.00 | 0.00 | 0.00 | 44 | 1015.6 |
| 20260905133228 | 21 | 288 | 8.0 | 24.1 | 0.00 | 0.00 | 0.00 | 43 | 1015.6 |
| 20260905132728 | 21 | 295 | 6.4 | 22.5 | 0.00 | 0.00 | 0.00 | 42 | 1015.6 |
| 20260905132228 | 21 | 300 | 8.0 | 19.3 | 0.00 | 0.00 | 0.00 | 43 | 1015.6 |
| 20260905131727 | 21 | 313 | 8.0 | 16.1 | 0.00 | 0.00 | 0.00 | 44 | 1015.7 |
| 20260905131227 | 21 | 268 | 14.5 | 19.3 | 0.00 | 0.00 | 0.00 | 43 | 1015.7 |
| 20260905130727 | 21 | 240 | 8.0 | 19.3 | 0.00 | 0.00 | 0.00 | 44 | 1015.6 |
| 20260905130227 | 21 | 281 | 9.7 | 24.1 | 0.00 | 0.00 | 0.00 | 43 | 1015.7 |
| 20260905125726 | 21 | 246 | 14.5 | 20.9 | 0.00 | 0.00 | 0.00 | 42 | 1015.7 |
| 20260905125226 | 21 | 324 | 4.8 | 9.7 | 0.00 | 0.00 | 0.00 | 47 | 1015.7 |
| 20260905124726 | 20 | 239 | 4.8 | 16.1 | 0.00 | 0.00 | 0.00 | 48 | 1015.8 |
| 20260905124225 | 20 | 251 | 9.7 | 17.7 | 0.00 | 0.00 | 0.00 | 48 | 1015.8 |
| 20260905123725 | 20 | 241 | 8.0 | 16.1 | 0.00 | 0.00 | 0.00 | 47 | 1016.0 |
| 20260905123225 | 20 | 343 | 6.4 | 22.5 | 0.00 | 0.00 | 0.00 | 45 | 1016.0 |
| 20260905122725 | 20 | 241 | 11.3 | 25.7 | 0.00 | 0.00 | 0.00 | 46 | 1016.1 |
| 20260905122224 | 20 | 239 | 16.1 | 22.5 | 0.00 | 0.00 | 0.00 | 49 | 1016.1 |
| 20260905121724 | 20 | 267 | 4.8 | 17.7 | 0.00 | 0.00 | 0.00 | 48 | 1016.1 |
| 20260905121224 | 20 | 237 | 6.4 | 25.7 | 0.00 | 0.00 | 0.00 | 49 | 1016.1 |
| 20260905120724 | 20 | 222 | 16.1 | 29.0 | 0.00 | 0.00 | 0.00 | 48 | 1016.2 |
| 20260905120223 | 20 | 260 | 4.8 | 27.4 | 0.00 | 0.00 | 0.00 | 49 | 1016.3 |
| 20260905115723 | 20 | 292 | 4.8 | 24.1 | 0.00 | 0.00 | 0.00 | 48 | 1016.4 |
| 20260905115223 | 20 | 220 | 17.7 | 22.5 | 0.00 | 0.00 | 0.00 | 50 | 1016.4 |
| 20260905114722 | 19 | 248 | 11.3 | 17.7 | 0.00 | 0.00 | 0.00 | 53 | 1016.5 |
| 20260905114222 | 18 | 286 | 4.8 | 22.5 | 0.00 | 0.00 | 0.00 | 53 | 1016.6 |
| 20260905113722 | 18 | 223 | 12.9 | 22.5 | 0.00 | 0.00 | 0.00 | 53 | 1016.6 |
| 20260905113222 | 18 | 234 | 9.7 | 19.3 | 0.00 | 0.00 | 0.00 | 54 | 1016.6 |
| 20260905112721 | 18 | 257 | 8.0 | 20.9 | 0.00 | 0.00 | 0.00 | 54 | 1016.6 |
| 20260905112221 | 18 | 282 | 6.4 | 19.3 | 0.00 | 0.00 | 0.00 | 54 | 1016.6 |
| 20260905111721 | 18 | 250 | 14.5 | 25.7 | 0.00 | 0.00 | 0.00 | 54 | 1016.6 |
| 20260905111220 | 18 | 255 | 11.3 | 19.3 | 0.00 | 0.00 | 0.00 | 54 | 1016.6 |
| 20260905110720 | 18 | 253 | 12.9 | 24.1 | 0.00 | 0.00 | 0.00 | 53 | 1016.9 |
| 20260905110220 | 18 | 285 | 6.4 | 27.4 | 0.00 | 0.00 | 0.00 | 53 | 1016.9 |
| 20260905105720 | 18 | 248 | 4.8 | 29.0 | 0.00 | 0.00 | 0.00 | 51 | 1016.7 |
| 20260905105219 | 18 | 295 | 9.7 | 27.4 | 0.00 | 0.00 | 0.00 | 51 | 1016.9 |
| 20260905104719 | 19 | 253 | 9.7 | 20.9 | 0.00 | 0.00 | 0.00 | 51 | 1016.7 |
| 20260905104219 | 19 | 260 | 9.7 | 29.0 | 0.00 | 0.00 | 0.00 | 51 | 1016.5 |
| 20260905103718 | 19 | 261 | 14.5 | 25.7 | 0.00 | 0.00 | 0.00 | 49 | 1016.6 |
| 20260905103218 | 19 | 233 | 19.3 | 24.1 | 0.00 | 0.00 | 0.00 | 49 | 1016.5 |
| 20260905102718 | 18 | 116 | 6.4 | 20.9 | 0.00 | 0.00 | 0.00 | 53 | 1016.5 |
| 20260905102218 | 18 | 260 | 1.6 | 24.1 | 0.00 | 0.00 | 0.00 | 55 | 1016.4 |
| 20260905101717 | 18 | 323 | 8.0 | 19.3 | 0.00 | 0.00 | 0.00 | 56 | 1016.4 |
| 20260905101217 | 18 | 326 | 4.8 | 17.7 | 0.00 | 0.00 | 0.00 | 56 | 1016.3 |
| 20260905100717 | 18 | 281 | 4.8 | 29.0 | 0.00 | 0.00 | 0.00 | 56 | 1016.2 |
| 20260905100216 | 17 | 277 | 9.7 | 19.3 | 0.00 | 0.00 | 0.00 | 60 | 1016.2 |
| 20260905095716 | 17 | 300 | 11.3 | 17.7 | 0.00 | 0.00 | 0.00 | 62 | 1016.2 |
| 20260905095216 | 17 | 254 | 1.6 | 12.9 | 0.00 | 0.00 | 0.00 | 64 | 1016.1 |
| 20260905094716 | 17 | 234 | 3.2 | 16.1 | 0.00 | 0.00 | 0.00 | 64 | 1016.2 |
| 20260905094215 | 17 | 300 | 4.8 | 17.7 | 0.00 | 0.00 | 0.00 | 64 | 1016.2 |
| 20260905093715 | 16 | 229 | 6.4 | 16.1 | 0.00 | 0.00 | 0.00 | 66 | 1016.2 |
| 20260905093215 | 16 | 298 | 6.4 | 19.3 | 0.00 | 0.00 | 0.00 | 66 | 1016.1 |
| 20260905092714 | 16 | 344 | 4.8 | 19.3 | 0.00 | 0.00 | 0.00 | 66 | 1016.2 |
| 20260905092214 | 16 | 270 | 9.7 | 19.3 | 0.00 | 0.00 | 0.00 | 66 | 1016.3 |
| 20260905091714 | 16 | 285 | 6.4 | 20.9 | 0.00 | 0.00 | 0.00 | 66 | 1016.3 |
| 20260905091214 | 16 | 248 | 17.7 | 17.7 | 0.00 | 0.00 | 0.00 | 66 | 1016.3 |
| 20260905090713 | 16 | 248 | 3.2 | 19.3 | 0.00 | 0.00 | 0.00 | 68 | 1016.3 |
| 20260905090213 | 16 | 246 | 8.0 | 17.7 | 0.00 | 0.00 | 0.00 | 67 | 1016.3 |
| 20260905085713 | 16 | 270 | 4.8 | 24.1 | 0.00 | 0.00 | 0.00 | 67 | 1015.9 |
| 20260905085212 | 16 | 272 | 4.8 | 19.3 | 0.00 | 0.00 | 0.00 | 68 | 1015.9 |
| 20260905084712 | 16 | 264 | 12.9 | 17.7 | 0.00 | 0.00 | 0.00 | 67 | 1015.9 |
| 20260905084212 | 16 | 261 | 6.4 | 24.1 | 0.00 | 0.00 | 0.00 | 67 | 1015.9 |
| 20260905083712 | 16 | 254 | 8.0 | 20.9 | 0.00 | 0.00 | 0.00 | 67 | 1016.0 |
| 20260905083211 | 16 | 223 | 4.8 | 25.7 | 0.00 | 0.00 | 0.00 | 67 | 1016.0 |
| 20260905082711 | 16 | 236 | 14.5 | 22.5 | 0.00 | 0.00 | 0.00 | 67 | 1016.0 |
| 20260905082211 | 16 | 278 | 6.4 | 25.7 | 0.00 | 0.00 | 0.00 | 67 | 1015.9 |
| 20260905081711 | 16 | 257 | 8.0 | 24.1 | 0.00 | 0.00 | 0.00 | 67 | 1015.9 |
| 20260905081210 | 16 | 255 | 8.0 | 27.4 | 0.00 | 0.00 | 0.00 | 67 | 1016.0 |
| 20260905080710 | 16 | 344 | 3.2 | 19.3 | 0.00 | 0.00 | 0.00 | 69 | 1015.9 |
| 20260905080210 | 16 | 296 | 14.5 | 22.5 | 0.00 | 0.00 | 0.00 | 70 | 1015.7 |
| 20260905075709 | 16 | 246 | 14.5 | 25.7 | 0.00 | 0.00 | 0.00 | 70 | 1015.6 |
| 20260905075209 | 16 | 246 | 4.8 | 20.9 | 0.00 | 0.00 | 0.00 | 71 | 1015.7 |
| 20260905074709 | 16 | 250 | 17.7 | 19.3 | 0.00 | 0.00 | 0.00 | 71 | 1015.6 |
| 20260905074209 | 16 | 250 | 14.5 | 16.1 | 0.00 | 0.00 | 0.00 | 72 | 1015.4 |
| 20260905073708 | 16 | 258 | 8.0 | 20.9 | 0.00 | 0.00 | 0.00 | 71 | 1015.4 |
| 20260905073208 | 16 | 260 | 9.7 | 17.7 | 0.00 | 0.00 | 0.00 | 70 | 1015.3 |
| 20260905072708 | 16 | 309 | 11.3 | 25.7 | 0.00 | 0.00 | 0.00 | 68 | 1015.4 |
| 20260905072207 | 16 | 281 | 11.3 | 16.1 | 0.00 | 0.00 | 0.00 | 67 | 1015.4 |
| 20260905071707 | 16 | 236 | 4.8 | 24.1 | 0.00 | 0.00 | 0.00 | 67 | 1015.5 |
| 20260905071207 | 16 | 229 | 9.7 | 25.7 | 0.00 | 0.00 | 0.00 | 67 | 1015.4 |
| 20260905070707 | 16 | 45 | 4.8 | 24.1 | 0.00 | 0.00 | 0.00 | 69 | 1015.4 |
| 20260905070206 | 16 | 274 | 8.0 | 17.7 | 0.00 | 0.00 | 0.00 | 70 | 1015.3 |
| 20260905065706 | 16 | 277 | 6.4 | 27.4 | 0.00 | 0.00 | 0.00 | 70 | 1015.2 |
| 20260905065206 | 17 | 275 | 6.4 | 12.9 | 0.00 | 0.00 | 0.00 | 70 | 1015.2 |
| 20260905064705 | 16 | 288 | 8.0 | 16.1 | 0.00 | 0.00 | 0.00 | 68 | 1015.1 |
| 20260905064205 | 17 | 240 | 9.7 | 17.7 | 0.00 | 0.00 | 0.00 | 68 | 1014.9 |
| 20260905063705 | 17 | 288 | 9.7 | 20.9 | 0.00 | 0.00 | 0.00 | 67 | 1014.9 |
| 20260905063205 | 17 | 278 | 19.3 | 29.0 | 0.00 | 0.00 | 0.00 | 67 | 1014.6 |
| 20260905062704 | 17 | 320 | 4.8 | 17.7 | 0.00 | 0.00 | 0.00 | 68 | 1014.5 |
| 20260905062204 | 16 | 234 | 11.3 | 16.1 | 0.00 | 0.00 | 0.00 | 70 | 1014.4 |
| 20260905061704 | 16 | 217 | 9.7 | 19.3 | 0.00 | 0.00 | 0.00 | 69 | 1014.4 |
| 20260905061203 | 16 | 241 | 6.4 | 16.1 | 0.00 | 0.00 | 0.00 | 72 | 1014.4 |
| 20260905060703 | 16 | 262 | 3.2 | 11.3 | 0.00 | 0.00 | 0.00 | 73 | 1014.3 |
| 20260905060203 | 16 | 223 | 4.8 | 11.3 | 0.00 | 0.00 | 0.00 | 73 | 1014.3 |
| 20260905055703 | 16 | 248 | 3.2 | 19.3 | 0.00 | 0.00 | 0.00 | 73 | 1014.1 |
| 20260905055202 | 16 | 253 | 4.8 | 12.9 | 0.00 | 0.00 | 0.00 | 73 | 1014.2 |
| 20260905054702 | 16 | 250 | 9.7 | 16.1 | 0.00 | 0.00 | 0.00 | 74 | 1014.1 |
| 20260905054202 | 16 | 271 | 3.2 | 16.1 | 0.00 | 0.00 | 0.00 | 75 | 1014.0 |
| 20260905053702 | 16 | 234 | 11.3 | 16.1 | 0.00 | 0.00 | 0.00 | 75 | 1014.1 |
| 20260905053201 | 16 | 241 | 3.2 | 16.1 | 0.00 | 0.00 | 0.00 | 75 | 1014.1 |
| 20260905052701 | 16 | 241 | 9.7 | 12.9 | 0.00 | 0.00 | 0.00 | 76 | 1013.8 |
| 20260905052201 | 16 | 285 | 1.6 | 8.0 | 0.00 | 0.00 | 0.00 | 77 | 1013.9 |
| 20260905051700 | 16 | 265 | 8.0 | 12.9 | 0.00 | 0.00 | 0.00 | 77 | 1013.7 |
| 20260905051200 | 16 | 264 | 3.2 | 11.3 | 0.00 | 0.00 | 0.00 | 78 | 1013.9 |
| 20260905050700 | 16 | 222 | 0.0 | 11.3 | 0.00 | 0.00 | 0.00 | 80 | 1013.7 |
| 20260905050159 | 16 | 241 | 6.4 | 11.3 | 0.00 | 0.00 | 0.00 | 80 | 1013.5 |
| 20260905045659 | 16 | 219 | 1.6 | 12.9 | 0.00 | 0.00 | 0.00 | 81 | 1013.3 |
| 20260905045159 | 16 | 230 | 3.2 | 11.3 | 0.00 | 0.00 | 0.00 | 82 | 1013.3 |
| 20260905044659 | 15 | 203 | 4.8 | 11.3 | 0.00 | 0.00 | 0.00 | 82 | 1013.2 |
| 20260905044158 | 15 | 233 | 9.7 | 9.7 | 0.00 | 0.00 | 0.00 | 82 | 1013.1 |
| 20260905043658 | 15 | 251 | 4.8 | 11.3 | 0.00 | 0.00 | 0.00 | 82 | 1013.2 |
| 20260905043158 | 15 | 247 | 6.4 | 11.3 | 0.00 | 0.00 | 0.00 | 82 | 1013.3 |
| 20260905042657 | 15 | 227 | 6.4 | 9.7 | 0.00 | 0.00 | 0.00 | 83 | 1013.2 |
| 20260905042157 | 15 | 229 | 8.0 | 14.5 | 0.00 | 0.00 | 0.00 | 83 | 1013.2 |
| 20260905041657 | 15 | 233 | 6.4 | 12.9 | 0.00 | 0.00 | 0.00 | 83 | 1013.3 |
| 20260905041157 | 15 | 212 | 8.0 | 12.9 | 0.00 | 0.00 | 0.00 | 83 | 1013.2 |
| 20260905040656 | 15 | 230 | 11.3 | 12.9 | 0.00 | 0.00 | 0.00 | 83 | 1013.4 |
| 20260905040156 | 15 | 240 | 3.2 | 16.1 | 0.00 | 0.00 | 0.00 | 84 | 1013.3 |
| 20260905035656 | 15 | 247 | 8.0 | 9.7 | 0.00 | 0.00 | 0.00 | 84 | 1013.3 |
| 20260905035156 | 15 | 232 | 0.0 | 11.3 | 0.00 | 0.00 | 0.00 | 84 | 1013.2 |
| 20260905034655 | 15 | 230 | 4.8 | 11.3 | 0.00 | 0.00 | 0.00 | 84 | 1013.1 |
| 20260905034155 | 15 | 237 | 8.0 | 12.9 | 0.00 | 0.00 | 0.00 | 84 | 1013.0 |
| 20260905033655 | 15 | 229 | 4.8 | 9.7 | 0.00 | 0.00 | 0.00 | 83 | 1013.1 |
| 20260905033154 | 16 | 255 | 4.8 | 11.3 | 0.00 | 0.00 | 0.00 | 83 | 1013.0 |
| 20260905032654 | 15 | 251 | 6.4 | 12.9 | 0.00 | 0.00 | 0.00 | 83 | 1013.3 |
| 20260905032154 | 16 | 288 | 6.4 | 16.1 | 0.00 | 0.00 | 0.00 | 83 | 1013.3 |
| 20260905031654 | 16 | 288 | 4.8 | 12.9 | 0.00 | 0.00 | 0.00 | 84 | 1013.0 |
| 20260905031153 | 15 | 278 | 0.0 | 11.3 | 0.00 | 0.00 | 0.00 | 83 | 1012.9 |
| 20260905030653 | 15 | 220 | 4.8 | 12.9 | 0.00 | 0.00 | 0.00 | 83 | 1012.9 |
| 20260905030153 | 16 | 244 | 6.4 | 16.1 | 0.00 | 0.00 | 0.00 | 82 | 1013.0 |
| 20260905025652 | 16 | 236 | 4.8 | 11.3 | 0.00 | 0.00 | 0.00 | 82 | 1013.1 |
| 20260905025152 | 16 | 240 | 6.4 | 12.9 | 0.00 | 0.00 | 0.00 | 81 | 1013.0 |
| 20260905024652 | 16 | 309 | 4.8 | 14.5 | 0.00 | 0.00 | 0.00 | 80 | 1013.0 |
| 20260905024152 | 16 | 222 | 11.3 | 16.1 | 0.00 | 0.00 | 0.00 | 79 | 1013.2 |
| 20260905023651 | 17 | 303 | 9.7 | 16.1 | 0.00 | 0.00 | 0.00 | 75 | 1013.0 |
| 20260905023151 | 17 | 253 | 14.5 | 19.3 | 0.00 | 0.00 | 0.00 | 71 | 1013.0 |
| 20260905022651 | 17 | 279 | 16.1 | 17.7 | 0.00 | 0.00 | 0.00 | 68 | 1012.7 |
| 20260905022150 | 17 | 317 | 3.2 | 16.1 | 0.00 | 0.00 | 0.00 | 67 | 1012.7 |
| 20260905021650 | 18 | 248 | 6.4 | 24.1 | 0.00 | 0.00 | 0.00 | 65 | 1012.4 |
| 20260905021150 | 18 | 298 | 8.0 | 27.4 | 0.00 | 0.00 | 0.00 | 63 | 1012.1 |
| 20260905020650 | 19 | 232 | 8.0 | 24.1 | 0.00 | 0.00 | 0.00 | 58 | 1012.1 |
| 20260905020149 | 19 | 296 | 8.0 | 30.6 | 0.00 | 0.00 | 0.00 | 57 | 1012.0 |
| 20260905015649 | 19 | 302 | 9.7 | 22.5 | 0.00 | 0.00 | 0.00 | 58 | 1011.9 |
| 20260905015149 | 19 | 315 | 6.4 | 16.1 | 0.00 | 0.00 | 0.00 | 57 | 1011.9 |
| 20260905014648 | 20 | 293 | 8.0 | 19.3 | 0.00 | 0.00 | 0.00 | 57 | 1011.5 |
| 20260905014148 | 20 | 330 | 4.8 | 20.9 | 0.00 | 0.00 | 0.00 | 57 | 1011.5 |
| 20260905013648 | 20 | 319 | 6.4 | 24.1 | 0.00 | 0.00 | 0.00 | 57 | 1011.6 |
| 20260905013148 | 20 | 293 | 12.9 | 19.3 | 0.00 | 0.00 | 0.00 | 57 | 1011.7 |
| 20260905012647 | 20 | 270 | 3.2 | 11.3 | 0.00 | 0.00 | 0.00 | 59 | 1011.7 |
| 20260905012147 | 20 | 244 | 1.6 | 17.7 | 0.00 | 0.00 | 0.00 | 58 | 1011.4 |
| 20260905011647 | 20 | 329 | 8.0 | 11.3 | 0.00 | 0.00 | 0.00 | 57 | 1011.3 |
| 20260905011146 | 20 | 315 | 6.4 | 17.7 | 0.00 | 0.00 | 0.00 | 56 | 1011.1 |
| 20260905010646 | 20 | 222 | 9.7 | 14.5 | 0.00 | 0.00 | 0.00 | 56 | 1011.0 |
| 20260905010146 | 20 | 296 | 1.6 | 8.0 | 0.00 | 0.00 | 0.00 | 57 | 1010.7 |
| 20260905005646 | 20 | 258 | 1.6 | 9.7 | 0.00 | 0.00 | 0.00 | 56 | 1010.4 |
| 20260905005145 | 20 | 270 | 4.8 | 11.3 | 0.00 | 0.00 | 0.00 | 55 | 1010.2 |
| 20260905004645 | 20 | 239 | 3.2 | 9.7 | 0.00 | 0.00 | 0.00 | 55 | 1010.2 |
| 20260905004145 | 20 | 258 | 4.8 | 8.0 | 0.00 | 0.00 | 0.00 | 55 | 1010.2 |
| 20260905003645 | 20 | 217 | 3.2 | 9.7 | 0.00 | 0.00 | 0.00 | 54 | 1009.9 |
| 20260905003144 | 20 | 265 | 6.4 | 9.7 | 0.00 | 0.00 | 0.00 | 53 | 1009.9 |
| 20260905002644 | 20 | 216 | 1.6 | 9.7 | 0.00 | 0.00 | 0.00 | 52 | 1009.8 |
| 20260905002144 | 21 | 254 | 3.2 | 14.5 | 0.00 | 0.00 | 0.00 | 51 | 1009.7 |
| 20260905001643 | 21 | 254 | 9.7 | 20.9 | 0.00 | 0.00 | 0.00 | 50 | 1009.7 |
| 20260905001143 | 21 | 260 | 8.0 | 14.5 | 0.00 | 0.00 | 0.00 | 51 | 1009.7 |
| 20260905000643 | 21 | 261 | 8.0 | 12.9 | 0.00 | 0.00 | 0.00 | 51 | 1009.6 |
| 20260905000143 | 20 | 246 | 11.3 | 16.1 | 0.00 | 0.00 | 0.00 | 51 | 1008.9 |
| 20260904235642 | 20 | 237 | 3.2 | 14.5 | 0.00 | 0.00 | 0.00 | 51 | 1008.5 |
| 20260904235142 | 20 | 254 | 4.8 | 16.1 | 0.00 | 0.00 | 0.00 | 51 | 1008.5 |